Regional Weather Roundup
Issued by NWS

Home | Current Version | Previous Version | Graphics & Text | Print | Product List | Glossary Off
Versions: 1 2 3 4 5 6 7 8 9 10 11 12 13 14 15 16 17 18 19 20 21 22 23 24 25 26 27 28 29 30 31 32 33 34 35 36 37 38 39 40 41 42 43 44 45 46 47 48 49 50

000
ASUS43 KMKX 292321
RWRWI

WISCONSIN REGIONAL WEATHER ROUNDUP
NATIONAL WEATHER SERVICE MILWAUKEE/SULLIVAN WI
500 PM CST THU JAN 29 2015

NOTE: "FAIR" INDICATES FEW OR NO CLOUDS BELOW 12,000 FEET WITH NO
SIGNIFICANT WEATHER AND/OR OBSTRUCTIONS TO VISIBILITY.

WIZ001-002-006>008-014>016-023>028-300000-
NORTHWEST WISCONSIN

CITY           SKY/WX    TMP DP  RH WIND       PRES   REMARKS
SUPERIOR ARPT  PTCLDY    17   7  64 N16G22    30.38R WCI   2
ASHLAND        CLOUDY    22  11  62 NW15G23   30.29R WCI   9
HAYWARD        CLOUDY    20   9  62 N12G20    30.28R WCI   8
SIREN          CLOUDY    21  11  65 N10G20    30.34R WCI  10
CUMBERLAND     CLOUDY    21  12  68 NW18G24   30.27R WCI   6
RICE LAKE      CLOUDY    23  13  65 NW13G23   30.29R WCI  11
CHETEK         CLOUDY    24  15  69 NW7G20    30.27R WCI  16
LADYSMITH      CLOUDY    24  15  67 N16       30.23R WCI  11
EAU CLAIRE     CLOUDY    27  14  58 NW18G28   30.25R WCI  14
MENOMONIE      CLOUDY    28  17  63 NW16G23   30.28R WCI  16
NEW RICHMOND   MOCLDY    24  14  66 NW16G25   30.31R WCI  11
OSCEOLA        CLOUDY    24  14  65 NW16G23   30.36R WCI  11
$$

WIZ003>005-009-010-017-018-300000-
NORTH CENTRAL WISCONSIN

CITY           SKY/WX    TMP DP  RH WIND       PRES   REMARKS
MANITOWISH WTR LGT SNOW  19  13  80 N9G21     30.15R WCI   7
ARBOR VITAE    LGT SNOW  22  15  76 N13G24    30.15R WCI  10
WOODRUFF       LGT SNOW  22  15  76 N13G24    30.15R WCI  10
RHINELANDER    FLURRIES  20  12  71 NW15G22   30.13R WCI   6
EAGLE RIVER    LGT SNOW  19  12  76 N17G28    30.13R WCI   3
LAND O LAKES   LGT SNOW  19  14  81 NW10G16   30.13R WCI   7
PHILLIPS       CLOUDY    22  13  68 NW15G22   30.17R WCI   8
TOMAHAWK       FLURRIES  23  15  71 NW7G18    30.14R WCI  15
MEDFORD        CLOUDY    25  16  69 NW23G30   30.15R HAZE    WCI  10
MERRILL        CLOUDY    26  15  64 N15G21    30.13R WCI  14
$$

WIZ029-030-035-036-043>047-300000-
CENTRAL WISCONSIN

CITY           SKY/WX    TMP DP  RH WIND       PRES   REMARKS
WAUSAU         CLOUDY    27  15  61 NW17G25   30.11R WCI  14
MOSINEE        CLOUDY    28  19  69 NW20G28   30.13R WCI  15
MARSHFIELD     CLOUDY    28  17  63 NW23G29   30.15R WCI  14
STEVENS POINT  CLOUDY    29  16  57 NW13G20   30.13R WCI  19
WAUPACA        CLOUDY    34  18  52 NW16G26   30.11R WCI  24
WAUTOMA        CLOUDY    33  19  56 NW15G25   30.13R WCI  23
WISC RAPIDS    CLOUDY    30  18  60 NW23G31   30.16R WCI  17
CAMP DOUGLAS   CLOUDY    32  21  64 NW22G33   30.17R WCI  19
$$

WIZ011>013-019>022-031-037>040-048>050-300000-
NORTHEAST WISCONSIN

CITY           SKY/WX    TMP DP  RH WIND       PRES   REMARKS
ANTIGO         CLOUDY    23  16  75 N22G31    30.10R WCI   7
SHAWANO        CLOUDY    32  17  53 N21G29    30.11R WCI  19
OCONTO         CLOUDY    29  18  62 N15       30.10R WCI  18
STURGEON BAY   CLOUDY    28  16  59 NW20G31   30.10R WCI  15
GREEN BAY      CLOUDY    31  18  58 N16       30.09R WCI  20
MANITOWOC      CLOUDY    33  20  58 N20G30    30.07R WCI  21
APPLETON       MOCLDY    30  18  59 NW23G32   30.08R WCI  17
CLINTONVILLE   CLOUDY    30  18  59 N18G25    30.11R WCI  18
OSHKOSH        CLOUDY    33  19  56 NW13      30.09R WCI  24
$$

WIZ032>034-041-042-053>061-300000-
SOUTHWEST WISCONSIN

CITY           SKY/WX    TMP DP  RH WIND       PRES   REMARKS
LA CROSSE      CLOUDY    32  20  61 N16       30.25R WCI  21
SPARTA         CLOUDY    31  20  63 NW16G25   30.22R WCI  20
VIROQUA        CLOUDY    30  21  69 NW18G25   30.19R WCI  18
BOSCOBEL       CLOUDY    36  21  54 NW8G18    30.21R WCI  30
PRAIRIE DU CHI CLOUDY    33  20  59 W20G26    30.23R WCI  22
PLATTEVILLE    CLOUDY    33  24  69 NW23      30.17R WCI  21
$$

WIZ056-057-062-063-064-067-068-300000-
SOUTH CENTRAL WISCONSIN

CITY           SKY/WX    TMP DP  RH WIND       PRES   REMARKS
REEDSBURG      CLOUDY    32  22  65 NW13G18   30.15R WCI  23
BARABOO/DELLS  CLOUDY    33  20  59 NW13G23   30.14R WCI  23
LONE ROCK      CLOUDY    35  22  58 NW12      30.18R WCI  27
MINERAL POINT  CLOUDY    34  23  64 NW10G16   30.15R WCI  26
MADISON        CLOUDY    34  20  56 NW9G18    30.13R WCI  27
MIDDLETON      CLOUDY    35  22  60 NW13G18   30.13R WCI  26
WATERTOWN      CLOUDY    33  21  62 NW10G16   30.10R WCI  25
MONROE         CLOUDY    34  27  75 NW10G20   30.14R WCI  26
JANESVILLE     CLOUDY    36  25  64 N24G30    30.12R WCI  24
$$

WIZ051-052-058>065-066-070>072-300000-
SOUTHEAST WISCONSIN

CITY           SKY/WX    TMP DP  RH WIND       PRES   REMARKS
MILWAUKEE      CLOUDY    35  22  58 NW18G26   30.08R WCI  24
WAUKESHA       CLOUDY    32  21  64 NW17G29   30.08R WCI  21
MILWAUKEE/TIMM CLOUDY    34  21  60 NW14G25   30.07R WCI  24
RACINE         CLOUDY    35  23  61 NW12      30.09R WCI  27
BURLINGTON     CLOUDY    32  23  69 NW14      30.10R WCI  22
KENOSHA        CLOUDY    35  24  64 NW12G25   30.09R WCI  27
FOND DU LAC    CLOUDY    34  20  56 N15       30.08R WCI  24
SHEBOYGAN      CLOUDY    34  20  56 NW16G30   30.06R WCI  24
WEST BEND      CLOUDY    32  21  64 NW16G23   30.07R WCI  21
JUNEAU         CLOUDY    32  20  61 NW16G24   30.10R WCI  22
$$

LSZ147-162-300000-
LAKE SUPERIOR

STATION/POSITION TIME  TEMP    WIND        PRES    WAVE
                       AIR SEA DIR/SP/G            HT/PER
                 (UTC) (F)     (DEG/KT/KT) (MB)    (FT/S)
DEVILS ISLAND    2300   20     330/ 23/ 27 1027.4R
PORT WING        2300   21     310/ 20     1027.4R
SAXON HARBOR     2300   24     330/ 22     1025.1R
$$

LMZ867-665-643>646-300000-
LAKE MICHIGAN

STATION/POSITION TIME  TEMP    WIND        PRES    WAVE
                       AIR SEA DIR/SP/G            HT/PER
                 (UTC) (F)     (DEG/KT/KT) (MB)    (FT/S)
NORTHPORT PIER   2304   26     340/ 26     1018.6R
SISTER BAY       2113   31     340/ 19/ 22   N/A
KEWAUNEE LAKESHO 2300   31     340/ 10/ 20 1017.2R
SHEBOYGAN LAKESH 2300   34     330/ 18/ 22 1019.2R
PORT WASHINGTON  2220   35     300/  9/ 24 1018.3R
MILWAUKEE LAKESH 2300   36     320/ 12/ 18   N/A
KENOSHA   LAKESH 2300   35     330/ 17/ 27 1018.6R
$$

TC  - TEMPERATURE IN CELSIUS
VSB - VISIBILITY IN STATUTE MILES
WCI - WIND CHILL INDEX
HX  - HEAT INDEX




USA.gov is the U.S. government's official web portal to all federal, state and local government web resources and services.